Simultaneous Nadir Overpasses (SNOs) Predictions

Prediction of SNOs between METOP-B and NOAA-19 Satellite Orbit:

Table of predicted SNOs for the next 14.0 days since TLE Epoch: 12/5/2014
Index Date (METOP-B) Time (METOP-B) Lat,Lon (METOP-B) SZA (METOP-B ) Date (NOAA-19) Time (NOAA-19) Lat,Lon (NOAA-19) SZA (NOAA-19 ) Distance(km) Time Diff (sec)
1 12/05/2014 20:36:39 74.49,-133.00 96.84 12/05/2014 20:35:25 74.53,-133.41 96.88 12.84 74
2 12/05/2014 21:27:23 -74.40, 34.10 83.25 12/05/2014 21:26:29 -74.43, 34.08 83.22 3.03 54
3 12/05/2014 22:18:02 74.42,-158.52 96.78 12/05/2014 22:17:26 74.42,-158.64 96.78 3.51 36
4 12/05/2014 23:08:45 -74.38, 8.71 83.26 12/05/2014 23:08:31 -74.37, 8.72 83.27 1.21 14
5 12/05/2014 23:59:25 74.35, 175.96 96.72 12/05/2014 23:59:28 74.36, 176.00 96.74 1.93 3
6 12/06/2014 00:50:07 -74.36, -16.68 83.27 12/06/2014 00:50:34 -74.36, -16.77 83.27 2.75 27
7 12/06/2014 01:40:47 74.33, 150.57 96.71 12/06/2014 01:41:30 74.31, 150.64 96.69 3.30 43
8 12/06/2014 02:31:30 -74.30, -42.19 83.32 12/06/2014 02:32:36 -74.31, -42.13 83.32 2.22 66
9 12/06/2014 03:22:17 73.92, 124.20 96.32 12/06/2014 03:23:26 73.96, 126.03 96.34 56.55 69
10 12/16/2014 04:56:19 74.93, 103.29 98.16 12/16/2014 04:55:11 74.96, 100.59 98.22 78.01 68
11 12/16/2014 05:47:12 -74.43, -90.77 82.34 12/16/2014 05:46:06 -74.44, -90.71 82.32 2.25 66
12 12/16/2014 06:37:51 74.43, 76.58 97.67 12/16/2014 06:37:03 74.43, 76.58 97.67 0.26 48
13 12/16/2014 07:28:34 -74.40,-116.16 82.36 12/16/2014 07:28:09 -74.43,-116.21 82.33 3.31 25
14 12/16/2014 08:19:13 74.41, 51.19 97.65 12/16/2014 08:19:06 74.42, 51.09 97.67 3.12 7
15 12/16/2014 09:09:56 -74.38,-141.55 82.37 12/16/2014 09:10:11 -74.38,-141.57 82.38 0.88 15
16 12/16/2014 10:00:35 74.39, 25.79 97.64 12/16/2014 10:01:08 74.36, 25.73 97.61 3.25 33
17 12/16/2014 10:51:18 -74.36,-166.95 82.39 12/16/2014 10:52:14 -74.37,-167.06 82.39 3.50 56
18 12/16/2014 11:41:58 74.32, 0.27 97.57 12/16/2014 11:43:10 74.31, 0.36 97.56 2.93 72




NCC Satellite Simultaneous Nadir Overpasses (SNOs) Prediction Service
